TimeCST,TemperatureF,Dew PointF,Humidity,Sea Level PressureIn,VisibilityMPH,Wind Direction,Wind SpeedMPH,Gust SpeedMPH,PrecipitationIn,Events,Conditions,WindDirDegrees,DateUTC
12:15 AM,24.8,19.4,80,30.30,10.0,NNW,5.8,-,N/A,,Overcast,330,2013-03-06 06:15:00
12:35 AM,24.8,19.4,80,30.31,10.0,NNW,9.2,-,N/A,,Overcast,340,2013-03-06 06:35:00
12:55 AM,24.8,17.6,74,30.31,10.0,NNW,8.1,-,N/A,,Overcast,330,2013-03-06 06:55:00
1:15 AM,23.0,17.6,80,30.32,10.0,NW,6.9,-,N/A,,Overcast,320,2013-03-06 07:15:00
1:35 AM,23.0,17.6,80,30.33,10.0,NNW,6.9,-,N/A,,Overcast,330,2013-03-06 07:35:00
1:55 AM,23.0,17.6,80,30.34,10.0,NW,6.9,-,N/A,,Overcast,320,2013-03-06 07:55:00
2:15 AM,23.0,17.6,80,30.34,10.0,NNW,5.8,-,N/A,,Overcast,340,2013-03-06 08:15:00
2:35 AM,21.2,17.6,86,30.34,10.0,NNW,5.8,-,N/A,,Overcast,330,2013-03-06 08:35:00
2:55 AM,21.2,17.6,86,30.34,10.0,NNW,6.9,-,N/A,,Overcast,330,2013-03-06 08:55:00
3:15 AM,21.2,17.6,86,30.34,10.0,NNW,8.1,17.3,N/A,,Overcast,330,2013-03-06 09:15:00
3:35 AM,21.2,17.6,86,30.35,10.0,NNW,8.1,-,N/A,,Overcast,340,2013-03-06 09:35:00
3:55 AM,21.2,15.8,80,30.35,10.0,North,4.6,-,N/A,,Overcast,350,2013-03-06 09:55:00
4:15 AM,19.4,15.8,86,30.35,10.0,North,4.6,-,N/A,,Overcast,360,2013-03-06 10:15:00
4:35 AM,21.2,15.8,80,30.36,10.0,Calm,Calm,-,N/A,,Overcast,0,2013-03-06 10:35:00
4:55 AM,21.2,15.8,80,30.37,10.0,NNW,4.6,-,N/A,,Overcast,330,2013-03-06 10:55:00
5:15 AM,21.2,15.8,80,30.37,10.0,North,6.9,-,N/A,,Overcast,350,2013-03-06 11:15:00
5:35 AM,21.2,17.6,86,30.37,10.0,NNW,4.6,-,N/A,,Overcast,340,2013-03-06 11:35:00
5:55 AM,21.2,17.6,86,30.38,10.0,NNW,6.9,-,N/A,,Overcast,340,2013-03-06 11:55:00
6:15 AM,21.2,17.6,86,30.38,10.0,NW,3.5,-,N/A,,Overcast,320,2013-03-06 12:15:00
6:35 AM,21.2,17.6,86,30.38,10.0,NNW,4.6,-,N/A,,Overcast,340,2013-03-06 12:35:00
6:55 AM,21.2,17.6,86,30.38,10.0,NNW,6.9,-,N/A,,Overcast,340,2013-03-06 12:55:00
7:15 AM,21.2,15.8,80,30.39,10.0,NNW,9.2,-,N/A,,Overcast,340,2013-03-06 13:15:00
7:35 AM,21.2,15.8,80,30.38,10.0,North,8.1,-,N/A,,Overcast,360,2013-03-06 13:35:00
7:55 AM,21.2,15.8,80,30.38,10.0,North,5.8,-,N/A,,Scattered Clouds,10,2013-03-06 13:55:00
8:15 AM,21.2,15.8,80,30.40,10.0,NNW,6.9,-,N/A,,Mostly Cloudy,340,2013-03-06 14:15:00
8:35 AM,21.2,15.8,80,30.40,10.0,NNW,6.9,-,N/A,,Mostly Cloudy,340,2013-03-06 14:35:00
8:55 AM,21.2,17.6,86,30.41,10.0,NNW,8.1,-,N/A,,Mostly Cloudy,330,2013-03-06 14:55:00
9:15 AM,21.2,15.8,80,30.41,10.0,NW,10.4,-,N/A,,Overcast,320,2013-03-06 15:15:00
9:35 AM,21.2,15.8,80,30.41,10.0,NNW,11.5,-,N/A,,Overcast,330,2013-03-06 15:35:00
9:55 AM,21.2,15.8,80,30.42,10.0,North,6.9,-,N/A,,Overcast,350,2013-03-06 15:55:00
10:15 AM,21.2,15.8,80,30.42,10.0,North,10.4,-,N/A,,Overcast,360,2013-03-06 16:15:00
10:35 AM,21.2,17.6,86,30.41,10.0,NNW,5.8,-,N/A,,Overcast,330,2013-03-06 16:35:00
10:55 AM,21.2,17.6,86,30.40,10.0,North,8.1,-,N/A,,Overcast,10,2013-03-06 16:55:00
11:15 AM,23.0,17.6,80,30.41,10.0,North,9.2,-,N/A,,Overcast,350,2013-03-06 17:15:00
11:35 AM,23.0,17.6,80,30.40,10.0,NNW,6.9,-,N/A,,Overcast,340,2013-03-06 17:35:00
11:55 AM,24.8,17.6,74,30.41,10.0,NNW,6.9,-,N/A,,Overcast,330,2013-03-06 17:55:00
12:15 PM,24.8,17.6,74,30.40,10.0,Calm,Calm,-,N/A,,Overcast,0,2013-03-06 18:15:00
12:35 PM,24.8,17.6,74,30.40,10.0,NNW,5.8,-,N/A,,Overcast,330,2013-03-06 18:35:00
12:55 PM,24.8,17.6,74,30.39,10.0,NNE,6.9,-,N/A,,Overcast,30,2013-03-06 18:55:00
1:15 PM,24.8,17.6,74,30.38,10.0,NNW,5.8,-,N/A,,Overcast,330,2013-03-06 19:15:00
1:35 PM,24.8,17.6,74,30.37,10.0,Calm,Calm,-,N/A,,Overcast,0,2013-03-06 19:35:00
1:55 PM,24.8,17.6,74,30.37,10.0,Calm,Calm,-,N/A,,Overcast,0,2013-03-06 19:55:00
2:15 PM,24.8,17.6,74,30.37,10.0,NNW,5.8,-,N/A,,Overcast,340,2013-03-06 20:15:00
2:35 PM,26.6,19.4,74,30.37,10.0,NNW,4.6,-,N/A,,Overcast,330,2013-03-06 20:35:00
2:55 PM,24.8,17.6,74,30.36,10.0,North,6.9,-,N/A,,Overcast,10,2013-03-06 20:55:00
3:15 PM,26.6,17.6,69,30.36,10.0,Calm,Calm,-,N/A,,Overcast,0,2013-03-06 21:15:00
3:35 PM,26.6,17.6,69,30.35,10.0,North,5.8,-,N/A,,Overcast,350,2013-03-06 21:35:00
3:55 PM,26.6,17.6,69,30.35,10.0,West,3.5,-,N/A,,Overcast,270,2013-03-06 21:55:00
4:15 PM,26.6,17.6,69,30.34,10.0,ENE,5.8,-,N/A,,Overcast,60,2013-03-06 22:15:00
4:35 PM,26.6,17.6,69,30.35,10.0,Calm,Calm,-,N/A,,Overcast,0,2013-03-06 22:35:00
4:55 PM,24.8,17.6,74,30.35,10.0,NE,4.6,-,N/A,,Overcast,40,2013-03-06 22:55:00
5:15 PM,24.8,17.6,74,30.35,10.0,Calm,Calm,-,N/A,,Overcast,0,2013-03-06 23:15:00
5:35 PM,24.8,17.6,74,30.34,10.0,Calm,Calm,-,N/A,,Overcast,0,2013-03-06 23:35:00
5:55 PM,24.8,17.6,74,30.34,10.0,Calm,Calm,-,N/A,,Overcast,0,2013-03-06 23:55:00
6:15 PM,24.8,17.6,74,30.34,10.0,WNW,3.5,-,N/A,,Overcast,290,2013-03-07 00:15:00
6:35 PM,24.8,17.6,74,30.33,10.0,Calm,Calm,-,N/A,,Overcast,0,2013-03-07 00:35:00
6:55 PM,23.0,15.8,74,30.32,10.0,NE,5.8,-,N/A,,Overcast,50,2013-03-07 00:55:00
7:15 PM,23.0,17.6,80,30.33,10.0,Calm,Calm,-,N/A,,Overcast,0,2013-03-07 01:15:00
7:35 PM,24.8,17.6,74,30.33,10.0,East,4.6,-,N/A,,Overcast,90,2013-03-07 01:35:00
7:55 PM,23.0,17.6,80,30.32,10.0,Calm,Calm,-,N/A,,Overcast,0,2013-03-07 01:55:00
8:35 PM,23.0,17.6,80,30.32,10.0,ESE,6.9,-,N/A,,Overcast,110,2013-03-07 02:35:00
8:55 PM,23.0,15.8,74,30.32,10.0,East,3.5,-,N/A,,Overcast,90,2013-03-07 02:55:00
9:35 PM,21.2,15.8,80,30.32,10.0,ESE,5.8,-,N/A,,Overcast,110,2013-03-07 03:35:00
9:55 PM,17.6,12.2,79,30.32,10.0,ESE,4.6,-,N/A,,Scattered Clouds,110,2013-03-07 03:55:00
10:15 PM,17.6,12.2,79,30.32,10.0,ESE,5.8,-,N/A,,Clear,120,2013-03-07 04:15:00
10:35 PM,15.8,10.4,79,30.32,10.0,East,4.6,-,N/A,,Clear,100,2013-03-07 04:35:00
10:55 PM,15.8,12.2,86,30.33,10.0,East,4.6,-,N/A,,Clear,100,2013-03-07 04:55:00
11:15 PM,15.8,10.4,79,30.32,10.0,ESE,6.9,-,N/A,,Clear,110,2013-03-07 05:15:00
11:35 PM,15.8,12.2,86,30.32,10.0,East,5.8,-,N/A,,Clear,90,2013-03-07 05:35:00
11:55 PM,14.0,10.4,86,30.33,10.0,East,5.8,-,N/A,,Clear,90,2013-03-07 05:55:00